Regional Weather Roundup
Issued by NWS Grand Forks, ND

Home | Current Version | Previous Version | Text Only | Print | Product List | Glossary On
Versions: 1 2 3 4 5 6 7 8 9 10 11 12 13 14 15 16 17 18 19 20 21 22 23 24 25 26 27 28 29 30 31 32 33 34 35 36 37 38 39 40 41 42 43 44 45 46 47 48 49 50
000
ASUS43 KFGF 302231
RWRFGF
PRAIRIE TO PINES  WEATHER ROUNDUP
NATIONAL WEATHER SERVICE EASTERN NORTH DAKOTA/GRAND FORKS ND
500 PM CDT SUN AUG 30 2015

 **SATELLITE DATA USED TO AUGMENT SKY COVER AT AUTOMATED STATIONS**
 *****  WEATHER ACROSS EASTERN NORTH DAKOTA  *****

CITY           SKY/WX    TMP DP  RH WIND       PRES   REMARKS
GRAND FORKS    PTSUNNY   86  68  54 S22G29    29.67S
GRAND FRKS AFB MOSUNNY   86  70  58 S21G28    29.67F HX  91
GRAND FRKS NWS   N/A     86 N/A N/A S18         N/A
DEVILS LAKE    PTSUNNY   86  66  51 S16       29.64S
FARGO          MOSUNNY   87  67  51 S17G29    29.73F HX  90
WAHPETON ARPT  PTCLDY    84  64  51 SE15      29.78S
$$

 ***** WEATHER ACROSS CENTRAL AND WESTERN NORTH DAKOTA  *****

CITY           SKY/WX    TMP DP  RH WIND       PRES   REMARKS
BISMARCK       MOSUNNY   97  58  27 S10       29.65F HX  96
MINOT          CLOUDY    88  55  32 W8        29.62F
JAMESTOWN      PTSUNNY   84  68  58 S16G24    29.69F
MINOT AFB      CLOUDY    91  55  28 NW10      29.62F
GARRISON         N/A     90  53  28 NW9       29.65F
WILLISTON      MOSUNNY   85  44  23 N17       29.72R
DICKINSON      NOT AVBL
HETTINGER      PTSUNNY   96  46  18 N14       29.74R HX  92
$$

 *****  OTHER AIRPORT OBSERVATIONS IN OUR AREA  *****

CITY           SKY/WX    TMP DP  RH WIND       PRES   REMARKS
WALHALLA       FAIR      88  72  58 MISG      29.62S HX  94
GRAFTON AIRPOR FAIR      84  72  65 S16G23    29.66F
VALLEY CITY AR FAIR      86  66  51 S16G25    29.72S
CANDO          FAIR      90  66  45 S18G25    29.63S HX  92
CAVALIER APRT  FAIR      86  70  58 S12G22    29.63F HX  90
GWINNER        FAIR      88  66  48 S14G24    29.75S HX  90
SHEYENNE NWR     N/A     89  65  44 S12       29.95S HX  91
ROLLA            N/A     93  55  27 SW21G32   29.64R HX  91
 ***** THE ABOVE OBSERVATIONS ARE NON NWS ARE NOT QUALITY
       CONTROLLED AND MAY MIS-REPORT RAIN FOR SNOW...
$$

  *****  WEATHER ACROSS NORTHERN MINNESOTA  *****

CITY           SKY/WX    TMP DP  RH WIND       PRES   REMARKS
FLAG ISLAND    PTSUNNY   77  66  69 SE13      29.72F
WARROAD        MOSUNNY   84  73  70 S6        29.73S HX  91
ROSEAU         MOSUNNY   88  73  62 S9        29.71F HX  96
HALLOCK        MOSUNNY   86  68  54 S20       29.66S
THF RVR FALLS  MOSUNNY  N/A N/A N/A S16G23    29.72S
BAUDETTE       PTSUNNY   83  68  60 S10       29.75F
WASKISH        MOSUNNY   82  70  65 SE7       29.78S
CROOKSTON      SUNNY     86  66  51 S20G26    29.72S
STEPHEN NDAWN    N/A     84  64  51 S13         N/A
GREENBUSH NDAW   N/A     88  70  55 S10         N/A  HX  92
$$
  *****  WEATHER ACROSS CENTRAL AND WEST MINNESOTA  *****

CITY           SKY/WX    TMP DP  RH WIND       PRES   REMARKS
FOSSTON        SUNNY     86  64  48 S15G22    29.77F
BEMIDJI        MOSUNNY   82  69  65 S10       29.80F
PARK RAPIDS    SUNNY     84  66  54 S15       29.83F
ELBOW LAKE     FAIR      79  69  71 S15       29.82F
WADENA         SUNNY     81  68  65 S10G20    29.85S
DETROIT LAKES  SUNNY     81  66  61 S15       29.82S
MOORHEAD       MOSUNNY   84  68  58 S17       29.75S
FERGUS FALLS   MOSUNNY   81  68  65 S15       29.79F
MORRIS MN      SUNNY     81  70  69 S15G22    29.83F
STAPLES        SUNNY     79  66  65 S12G18    29.86F
$$
  *****  WEATHER ELSEWHERE ACROSS MINNESOTA  *****

CITY           SKY/WX    TMP DP  RH WIND       PRES   REMARKS
DULUTH         SUNNY     80  67  64 SW10      29.89S
INTRNTL FALLS  MOSUNNY   83  69  62 S6        29.79F
ELY            MOSUNNY   81  66  61 SW7       29.86S
CLOQUET        SUNNY     79  63  57 S13       29.89S
WHEATON        SUNNY     81  68  65 SE16      29.80F
BRAINERD       SUNNY     79  67  66 S12       29.88S
HIBBING        MOSUNNY   83  67  58 VRB6      29.85F
ALEXANDRIA     SUNNY     80  68  66 S14       29.88F
SAINT CLOUD    SUNNY     79  66  64 S12       29.89F
MINNEAPOLIS    MOSUNNY   80  64  58 S14       29.93F
$$

  *****  WEATHER ACROSS SOUTH DAKOTA  *****

CITY           SKY/WX    TMP DP  RH WIND       PRES   REMARKS
SIOUX FALLS    CLOUDY    76  65  68 S10       29.91F
BROOKINGS      SUNNY     77  66  69 S17       29.90F
WATERTOWN      SUNNY     80  68  66 S17G23    29.84F
HURON          SUNNY     83  69  62 SE18G26   29.79F
SISSETON         N/A     87  67  51 S14       29.77F HX  90
ABERDEEN       MOSUNNY   84  70  62 S18       29.75F
MITCHELL       SUNNY     83  69  62 SE21G30   29.83F
PIERRE         MOSUNNY   98  52  21 S18G28    29.69F HX  95
MOBRIDGE       MOSUNNY   96  58  27 S21G29    29.64F HX  95
RAPID CITY     MOSUNNY   97  52  21 S15       29.73F HX  94
$$

  *****  SOME WEATHER IN NEARBY STATES *****

CITY           SKY/WX    TMP DP  RH WIND       PRES   REMARKS
GLASGOW MT     SUNNY     84  49  29 SW12      29.72S
GREAT FALLS MT MOSUNNY   81  37  20 W18G25    29.74F
CHEYENNE WY    MOSUNNY   88  35  15 SW10      30.04F
SCOTTSBLUFF NE SUNNY     97  47  18 E12       29.86F HX  93
OMAHA NE       PTSUNNY   76  66  71 S8        29.99F
DES MOINES IA  PTSUNNY   78  67  68 S6        30.01S
DAVENPORT IA   MOSUNNY   77  65  66 VRB3      30.03F
CHICAGO IL     MOSUNNY   76  63  64 SW5       30.02F
EAU CLAIRE WI  SUNNY     76  63  64 S9        29.96F
LA CROSSE WI   PTSUNNY   76  64  66 S12       29.99F
$$

  *****  SOME NATIONAL WEATHER *****

CITY           SKY/WX    TMP DP  RH WIND       PRES   REMARKS
LA GUARDIA NY  PTSUNNY   83  67  58 S13       30.00F
RALEIGH NC     CLOUDY    81  63  54 SW6       30.14F
ATLANTA GA     CLOUDY    73  66  78 NE14      30.09F
NEW ORLEANS LA PTSUNNY   90  65  43 N5        29.99F HX  92
OKLAHOMA CITY  MOSUNNY   88  63  43 SW8       29.94F
ALBUQUERQUE NM MOSUNNY   90  41  18 CALM      30.12F
SALT LAKE CITY PTSUNNY   87  45  23 N8        29.93F
LOS ANGELES CA MOSUNNY   79  64  60 W14       29.87F
BOISE ID       CLOUDY    78  40  25 NW10      29.96F
SEATTLE WA     PTSUNNY   66  52  60 SW14      29.97R
$$

*** WEATHER ACROSS MANITOBA...SASKATCHEWAN AND ONTARIO ***
                ***ONTARIO***

CITY           SKY/WX    TMP DP  RH WIND       PRES   REMARKS
GERALDTON      PTSUNNY   77  66  69 W5        29.81R
THUNDER BAY    MOSUNNY   75  64  69 E6        29.81S
SIOUX LOOKOUT  PTSUNNY   82  64  54 SW5       29.80S
TORONTO        PTSUNNY   77  61  57 SE9       30.00F
BIG TROUT LK   CLOUDY    63  55  77 N7        29.84R
PICKLE LAKE    MOSUNNY   77  63  61 N6        29.79R
DRYDEN         SUNNY     81  68  65 S9        29.80S
KENORA         CLOUDY    81  70  69 SE13      29.76F
$$
                *** MANITOBA***

CITY           SKY/WX    TMP DP  RH WIND       PRES   REMARKS
BRANDON        PTSUNNY   91  63  38 W22       29.60R HX  92
DAUPHIN        SUNNY     77  66  69 N12G17    29.55F
ISLAND LAKE    PTSUNNY   64  57  77 E8        29.79R
PILOT MOUND      N/A     95  55  26 S22G30      N/A  HX  93
THE PAS        LGT RAIN  64  63  94 SE10      29.65R
THOMPSON       CLOUDY    59  52  77 E7        29.76S
WINNIPEG       PTSUNNY   86  70  58 S20       29.62F HX  90
LYNN LAKE      PTSUNNY   54  50  87 MISG      29.59F
CHURCHILL      MOSUNNY   55  41  58 SE18      29.94R
GILLAM         CLOUDY    54  50  87 E7        29.87R
$$
                ***SASKATCHEWAN***

CITY           SKY/WX    TMP DP  RH WIND       PRES   REMARKS
ESTEVAN        PTSUNNY   81  45  28 NW20G26   29.67F
KINDERSLEY     MOSUNNY   81  36  19 SW23G33   29.56F
LLOYDMINSTER   MOSUNNY   75  48  38 S8        29.49F
PRINCE ALBERT  CLOUDY    70  55  60 S8        29.54S
REGINA         MOSUNNY   70  59  68 W5        29.68R
YORKTON        SUNNY     73  52  46 W5        29.70R
N. BATTLEFORD    N/A     79  39  24 SW18G28   29.52F
LA RONGE       PTSUNNY   79  55  44 S10       29.45F
SASKATOON      MOSUNNY   79  43  27 SW16G25   29.58F
SWIFT CURRENT  SUNNY     79  43  27 SW22G28   29.66F
$$
NOTE: THESE ARE AUTOMATED STATIONS WITH LIMITED QUALITY CONTROL
      "FAIR" INDICATES FEW OR NO CLOUDS BELOW 12,000 FEET WITH NO
      SIGNIFICANT WEATHER AND/OR OBSTRUCTIONS TO VISIBILITY.
      SKY/WX - SKY CONDITION AND SIGNIFICANT WEATHER.
      TMP - AIR TEMPERATURE.    DP   - DEWPOINT TEMPERATURE.
      RH  - RELATIVE HUMIDITY.  PRES - PRESSURE.
      HX  - HEAT INDEX.         WCI  - WIND CHILL INDEX.
$


USA.gov is the U.S. government's official web portal to all federal, state and local government web resources and services.